RYR11CV LICA-LIME

Flight info

Callsign RYR11CV
Flight time 1h 23m
Altitude 38000
Route ARBUM DCT EVINO DCT KUGIX DCT LOMED/N0341F180 L995 OSBUL
Aircraft B38M/M-SDE1FGHILORVWXY/HB1

Departure

Time 2026-04-29 17:20
Airport Lamezia Terme Sant'Eufemia International Airport (LICA)

Arrival

Time 2026-04-29 18:44
Airport Il Caravaggio International Airport (LIME)
Time Latitude Longitude Altitude Speed Heading
2026-04-29 17:00 38.90851 16.24789 39 ft 0 kts 10°
2026-04-29 17:14 38.90847 16.24789 39 ft 3 kts 10°
2026-04-29 17:14 38.90821 16.24783 39 ft 4 kts 10°
2026-04-29 17:14 38.90796 16.24774 39 ft 4 kts 33°
2026-04-29 17:14 38.90780 16.24750 37 ft 4 kts 73°
2026-04-29 17:15 38.90778 16.24728 39 ft 1 kts 97°
2026-04-29 17:15 38.90779 16.24725 39 ft 0 kts 97°
2026-04-29 17:17 38.90776 16.24750 38 ft 9 kts 97°
2026-04-29 17:17 38.90752 16.24891 38 ft 21 kts 124°
2026-04-29 17:17 38.90667 16.25054 39 ft 24 kts 98°
2026-04-29 17:17 38.90643 16.25271 43 ft 25 kts 99°
2026-04-29 17:18 38.90615 16.25496 45 ft 26 kts 98°
2026-04-29 17:18 38.90588 16.25728 46 ft 27 kts 98°
2026-04-29 17:18 38.90559 16.25972 48 ft 28 kts 98°
2026-04-29 17:18 38.90488 16.26194 50 ft 28 kts 148°
2026-04-29 17:19 38.90341 16.26259 51 ft 17 kts 194°
2026-04-29 17:19 38.90312 16.26184 51 ft 0 kts 278°
2026-04-29 17:19 38.90319 16.26129 50 ft 30 kts 279°
2026-04-29 17:20 38.90396 16.25467 45 ft 117 kts 278°
2026-04-29 17:20 38.90551 16.24119 93 ft 181 kts 277°
2026-04-29 17:20 38.90746 16.22420 835 ft 200 kts 277°
2026-04-29 17:20 38.90940 16.20616 1797 ft 213 kts 277°
2026-04-29 17:21 38.91174 16.18653 2589 ft 232 kts 278°
2026-04-29 17:21 38.91428 16.16536 3410 ft 249 kts 277°
2026-04-29 17:21 38.91692 16.14273 4298 ft 260 kts 277°
2026-04-29 17:21 38.92242 16.12075 5456 ft 263 kts 300°
2026-04-29 17:22 38.93378 16.10208 6510 ft 268 kts 308°
2026-04-29 17:22 38.94557 16.08375 7508 ft 271 kts 309°
2026-04-29 17:22 38.95763 16.06518 8579 ft 271 kts 309°
2026-04-29 17:22 38.96983 16.04651 9610 ft 274 kts 310°
2026-04-29 17:23 38.98221 16.02765 10504 ft 280 kts 310°
2026-04-29 17:23 38.99519 16.00789 11008 ft 300 kts 310°
2026-04-29 17:23 39.00911 15.98674 11464 ft 318 kts 309°
2026-04-29 17:23 39.02368 15.96458 12076 ft 330 kts 309°
2026-04-29 17:24 39.04080 15.94490 12954 ft 334 kts 328°
2026-04-29 17:24 39.06176 15.93161 13791 ft 340 kts 332°
2026-04-29 17:24 39.08333 15.91848 14511 ft 344 kts 333°
2026-04-29 17:24 39.10482 15.90558 15241 ft 347 kts 333°
2026-04-29 17:25 39.12688 15.89245 15954 ft 351 kts 333°
2026-04-29 17:25 39.14923 15.87920 16657 ft 355 kts 333°
2026-04-29 17:25 39.17180 15.86583 17358 ft 359 kts 333°
2026-04-29 17:25 39.19461 15.85232 18035 ft 363 kts 333°
2026-04-29 17:26 39.21764 15.83866 18661 ft 366 kts 333°
2026-04-29 17:26 39.24090 15.82487 19240 ft 369 kts 333°
2026-04-29 17:26 39.26404 15.81114 19815 ft 372 kts 333°
2026-04-29 17:26 39.28599 15.79369 20363 ft 371 kts 317°
2026-04-29 17:27 39.30577 15.77206 20917 ft 375 kts 318°
2026-04-29 17:27 39.32585 15.75033 21472 ft 378 kts 317°
2026-04-29 17:27 39.34601 15.72830 22044 ft 381 kts 317°
2026-04-29 17:27 39.36625 15.70607 22592 ft 384 kts 317°
2026-04-29 17:28 39.38666 15.68359 23139 ft 387 kts 317°
2026-04-29 17:28 39.40722 15.66092 23664 ft 390 kts 317°
2026-04-29 17:28 39.42795 15.63804 24090 ft 393 kts 317°
2026-04-29 17:28 39.44856 15.61527 24507 ft 396 kts 317°
2026-04-29 17:29 39.46957 15.59204 24960 ft 398 kts 317°
2026-04-29 17:29 39.49070 15.56865 25396 ft 401 kts 317°
2026-04-29 17:29 39.51194 15.54512 25823 ft 403 kts 317°
2026-04-29 17:29 39.53332 15.52143 26245 ft 406 kts 317°
2026-04-29 17:30 39.55479 15.49761 26662 ft 408 kts 317°
2026-04-29 17:30 39.57639 15.47362 27067 ft 410 kts 317°
2026-04-29 17:30 39.59815 15.44944 27475 ft 412 kts 317°
2026-04-29 17:30 39.61998 15.42515 27869 ft 415 kts 317°
2026-04-29 17:31 39.64162 15.40106 28250 ft 417 kts 317°
2026-04-29 17:31 39.66373 15.37643 28633 ft 419 kts 317°
2026-04-29 17:31 39.68591 15.35169 29007 ft 422 kts 317°
2026-04-29 17:31 39.70825 15.32688 29376 ft 424 kts 319°
2026-04-29 17:32 39.73219 15.30410 29744 ft 427 kts 322°
2026-04-29 17:32 39.75636 15.28142 30087 ft 430 kts 321°
2026-04-29 17:32 39.78058 15.25840 30332 ft 433 kts 321°
2026-04-29 17:32 39.80488 15.23517 30651 ft 434 kts 321°
2026-04-29 17:33 39.82890 15.21212 30968 ft 436 kts 321°
2026-04-29 17:33 39.85334 15.18865 31273 ft 437 kts 321°
2026-04-29 17:33 39.87787 15.16506 31588 ft 439 kts 320°
2026-04-29 17:33 39.90240 15.14145 31942 ft 439 kts 320°
2026-04-29 17:34 39.92690 15.11787 32401 ft 437 kts 320°
2026-04-29 17:34 39.95128 15.09435 32848 ft 435 kts 320°
2026-04-29 17:34 39.97551 15.07097 33289 ft 433 kts 320°
2026-04-29 17:34 39.99961 15.04768 33709 ft 431 kts 320°
2026-04-29 17:35 40.03951 15.00910 34341 ft 428 kts 320°
2026-04-29 17:35 40.07114 14.97847 34747 ft 427 kts 320°
2026-04-29 17:35 40.09499 14.95535 35052 ft 426 kts 320°
2026-04-29 17:36 40.11878 14.93227 35338 ft 426 kts 320°
2026-04-29 17:36 40.14254 14.90919 35583 ft 426 kts 320°
2026-04-29 17:36 40.16632 14.88608 35839 ft 426 kts 320°
2026-04-29 17:36 40.19010 14.86295 36103 ft 425 kts 320°
2026-04-29 17:37 40.21378 14.83988 36353 ft 425 kts 320°
2026-04-29 17:37 40.23748 14.81679 36597 ft 424 kts 320°
2026-04-29 17:37 40.26081 14.79403 36834 ft 424 kts 320°
2026-04-29 17:37 40.28444 14.77096 37058 ft 423 kts 320°
2026-04-29 17:38 40.30802 14.74792 37279 ft 423 kts 320°
2026-04-29 17:38 40.33157 14.72488 37481 ft 422 kts 320°
2026-04-29 17:38 40.35511 14.70184 37684 ft 422 kts 320°
2026-04-29 17:38 40.37860 14.67882 37869 ft 422 kts 320°
2026-04-29 17:39 40.40208 14.65579 38022 ft 422 kts 320°
2026-04-29 17:39 40.44873 14.60999 38014 ft 420 kts 320°
2026-04-29 17:40 40.49553 14.56394 38028 ft 421 kts 320°
2026-04-29 17:40 40.54238 14.51777 38028 ft 420 kts 320°
2026-04-29 17:41 40.58913 14.47161 38025 ft 421 kts 320°
2026-04-29 17:41 40.63594 14.42532 38027 ft 421 kts 320°
2026-04-29 17:42 40.68241 14.37927 38013 ft 421 kts 320°
2026-04-29 17:42 40.72914 14.33288 38025 ft 421 kts 320°
2026-04-29 17:43 40.77592 14.28636 38021 ft 421 kts 320°
2026-04-29 17:43 40.82266 14.23980 38021 ft 421 kts 320°
2026-04-29 17:44 40.86938 14.19318 38019 ft 421 kts 320°
2026-04-29 17:44 40.91579 14.14677 38029 ft 421 kts 320°
2026-04-29 17:45 40.96250 14.09999 38046 ft 421 kts 320°
2026-04-29 17:45 41.00921 14.05311 38026 ft 421 kts 320°
2026-04-29 17:46 41.05588 14.00620 38026 ft 421 kts 320°
2026-04-29 17:46 41.10252 13.95922 38027 ft 421 kts 319°
2026-04-29 17:47 41.14885 13.91249 38047 ft 421 kts 320°
2026-04-29 17:47 41.19555 13.86527 38030 ft 422 kts 320°
2026-04-29 17:48 41.24225 13.81799 38032 ft 423 kts 320°
2026-04-29 17:48 41.28899 13.77056 38030 ft 423 kts 320°
2026-04-29 17:49 41.33538 13.72341 38031 ft 423 kts 320°
2026-04-29 17:49 41.38214 13.67579 38059 ft 423 kts 320°
2026-04-29 17:50 41.42886 13.62814 38038 ft 423 kts 320°
2026-04-29 17:50 41.47562 13.58034 38054 ft 423 kts 320°
2026-04-29 17:51 41.52231 13.53253 38047 ft 423 kts 320°
2026-04-29 17:51 41.56870 13.48494 38035 ft 423 kts 320°
2026-04-29 17:52 41.61551 13.43682 38050 ft 425 kts 320°
2026-04-29 17:52 41.66231 13.38862 38048 ft 424 kts 320°
2026-04-29 17:53 41.70903 13.34042 38048 ft 424 kts 320°
2026-04-29 17:53 41.75545 13.29245 38048 ft 424 kts 320°
2026-04-29 17:54 41.80212 13.24412 38048 ft 424 kts 320°
2026-04-29 17:54 41.84880 13.19568 38062 ft 424 kts 320°
2026-04-29 17:55 41.89541 13.14723 38047 ft 423 kts 320°
2026-04-29 17:55 41.94153 13.09920 38074 ft 424 kts 320°
2026-04-29 17:56 41.98810 13.05061 38070 ft 423 kts 319°
2026-04-29 17:56 42.03457 13.00202 38057 ft 423 kts 319°
2026-04-29 17:57 42.08104 12.95335 38080 ft 423 kts 319°
2026-04-29 17:57 42.12747 12.90462 38057 ft 423 kts 319°
2026-04-29 17:58 42.17359 12.85613 38065 ft 423 kts 319°
2026-04-29 17:58 42.21999 12.80725 38059 ft 423 kts 319°
2026-04-29 17:59 42.26638 12.75829 38033 ft 423 kts 319°
2026-04-29 17:59 42.31288 12.70911 38070 ft 425 kts 319°
2026-04-29 18:00 42.35903 12.66022 38043 ft 424 kts 319°
2026-04-29 18:00 42.40541 12.61098 38057 ft 424 kts 319°
2026-04-29 18:01 42.45176 12.56168 38057 ft 424 kts 319°
2026-04-29 18:01 42.49811 12.51228 38043 ft 424 kts 319°
2026-04-29 18:02 42.54448 12.46278 38045 ft 424 kts 319°
2026-04-29 18:02 42.59072 12.41331 38045 ft 423 kts 319°
2026-04-29 18:03 42.63664 12.36408 38047 ft 424 kts 319°
2026-04-29 18:03 42.68295 12.31434 38048 ft 424 kts 319°
2026-04-29 18:04 42.72923 12.26454 38044 ft 424 kts 319°
2026-04-29 18:04 42.77548 12.21468 38044 ft 424 kts 319°
2026-04-29 18:05 42.82141 12.16507 38051 ft 424 kts 319°
2026-04-29 18:05 42.86756 12.11510 38040 ft 424 kts 319°
2026-04-29 18:06 42.91373 12.06502 38045 ft 424 kts 319°
2026-04-29 18:06 42.95988 12.01487 38046 ft 424 kts 319°
2026-04-29 18:07 43.00573 11.96495 38065 ft 425 kts 319°
2026-04-29 18:07 43.05169 11.91480 38046 ft 421 kts 319°
2026-04-29 18:08 43.09748 11.86475 38063 ft 422 kts 319°
2026-04-29 18:08 43.14331 11.81456 38060 ft 422 kts 319°
2026-04-29 18:09 43.18910 11.76431 38055 ft 422 kts 319°
2026-04-29 18:09 43.23456 11.71434 38083 ft 422 kts 319°
2026-04-29 18:10 43.28018 11.66411 38058 ft 420 kts 319°
2026-04-29 18:10 43.32583 11.61374 38079 ft 422 kts 319°
2026-04-29 18:11 43.37152 11.56322 38081 ft 421 kts 319°
2026-04-29 18:11 43.41681 11.51306 38075 ft 421 kts 319°
2026-04-29 18:12 43.46244 11.46241 38103 ft 421 kts 319°
2026-04-29 18:12 43.50792 11.41183 38093 ft 420 kts 319°
2026-04-29 18:13 43.55374 11.36190 38076 ft 422 kts 326°
2026-04-29 18:13 43.60527 11.32269 38072 ft 424 kts 328°
2026-04-29 18:14 43.65664 11.28391 38104 ft 425 kts 328°
2026-04-29 18:14 43.70855 11.24483 37995 ft 424 kts 328°
2026-04-29 18:15 43.76042 11.20573 37999 ft 425 kts 328°
2026-04-29 18:15 43.81229 11.16654 37983 ft 425 kts 328°
2026-04-29 18:15 43.83792 11.14715 37803 ft 425 kts 328°
2026-04-29 18:16 43.86374 11.12760 37435 ft 421 kts 328°
2026-04-29 18:16 43.88926 11.10825 37013 ft 416 kts 328°
2026-04-29 18:16 43.91453 11.08908 36512 ft 412 kts 328°
2026-04-29 18:16 43.93952 11.07010 36005 ft 407 kts 328°
2026-04-29 18:17 43.96432 11.05124 35503 ft 404 kts 328°
2026-04-29 18:17 43.98880 11.03261 35013 ft 399 kts 328°
2026-04-29 18:17 44.01301 11.01418 34543 ft 395 kts 328°
2026-04-29 18:17 44.03641 10.99460 34047 ft 390 kts 324°
2026-04-29 18:18 44.05888 10.97470 33520 ft 387 kts 325°
2026-04-29 18:18 44.08152 10.95484 32991 ft 384 kts 325°
2026-04-29 18:18 44.10405 10.93515 32507 ft 380 kts 325°
2026-04-29 18:18 44.12633 10.91571 32013 ft 376 kts 325°
2026-04-29 18:19 44.14843 10.89640 31528 ft 377 kts 325°
2026-04-29 18:19 44.17104 10.87665 31022 ft 390 kts 325°
2026-04-29 18:19 44.19435 10.85625 30543 ft 402 kts 325°
2026-04-29 18:19 44.21815 10.83541 30020 ft 405 kts 325°
2026-04-29 18:20 44.24169 10.81478 29457 ft 404 kts 325°
2026-04-29 18:20 44.26536 10.79388 28929 ft 401 kts 325°
2026-04-29 18:20 44.28881 10.77315 28431 ft 397 kts 325°
2026-04-29 18:20 44.31193 10.75268 27977 ft 391 kts 325°
2026-04-29 18:21 44.33481 10.73243 27542 ft 387 kts 325°
2026-04-29 18:21 44.35742 10.71240 27087 ft 382 kts 325°
2026-04-29 18:21 44.37970 10.69263 26653 ft 378 kts 325°
2026-04-29 18:21 44.40178 10.67302 26235 ft 374 kts 325°
2026-04-29 18:22 44.42332 10.65389 25820 ft 371 kts 325°
2026-04-29 18:22 44.44508 10.63453 25403 ft 370 kts 325°
2026-04-29 18:22 44.46674 10.61525 25001 ft 368 kts 325°
2026-04-29 18:22 44.48831 10.59604 24594 ft 367 kts 325°
2026-04-29 18:23 44.50976 10.57681 24213 ft 365 kts 325°
2026-04-29 18:23 44.53105 10.55760 23775 ft 363 kts 325°
2026-04-29 18:23 44.55227 10.53846 23342 ft 362 kts 325°
2026-04-29 18:23 44.57339 10.51940 22869 ft 360 kts 326°
2026-04-29 18:24 44.59436 10.50046 22424 ft 357 kts 326°
2026-04-29 18:24 44.61520 10.48162 21971 ft 356 kts 326°
2026-04-29 18:24 44.63591 10.46286 21527 ft 353 kts 326°
2026-04-29 18:24 44.65623 10.44441 21094 ft 351 kts 326°
2026-04-29 18:25 44.67670 10.42581 20662 ft 348 kts 326°
2026-04-29 18:25 44.69673 10.40762 20232 ft 338 kts 326°
2026-04-29 18:25 44.71615 10.38996 19817 ft 328 kts 326°
2026-04-29 18:25 44.73503 10.37279 19417 ft 319 kts 326°
2026-04-29 18:26 44.75348 10.35600 19010 ft 314 kts 326°
2026-04-29 18:26 44.77175 10.33936 18610 ft 312 kts 326°
2026-04-29 18:26 44.78994 10.32279 18189 ft 311 kts 326°
2026-04-29 18:26 44.80805 10.30627 17671 ft 309 kts 326°
2026-04-29 18:27 44.82614 10.28997 17218 ft 309 kts 327°
2026-04-29 18:27 44.84403 10.27418 16803 ft 306 kts 327°
2026-04-29 18:27 44.86191 10.25834 16448 ft 303 kts 327°
2026-04-29 18:27 44.87977 10.24249 16121 ft 303 kts 327°
2026-04-29 18:28 44.89758 10.22668 15792 ft 302 kts 327°
2026-04-29 18:28 44.91526 10.21096 15466 ft 301 kts 327°
2026-04-29 18:28 44.93293 10.19523 15153 ft 299 kts 327°
2026-04-29 18:28 44.95052 10.17957 14846 ft 298 kts 327°
2026-04-29 18:29 44.96806 10.16395 14522 ft 297 kts 327°
2026-04-29 18:29 44.97957 10.15367 14327 ft 293 kts 327°
2026-04-29 18:29 45.00185 10.13381 13894 ft 279 kts 327°
2026-04-29 18:29 45.01799 10.11939 13573 ft 270 kts 327°
2026-04-29 18:30 45.03373 10.10533 13270 ft 266 kts 327°
2026-04-29 18:30 45.04940 10.09133 12943 ft 267 kts 327°
2026-04-29 18:30 45.06510 10.07727 12636 ft 267 kts 327°
2026-04-29 18:30 45.08080 10.06321 12331 ft 267 kts 327°
2026-04-29 18:31 45.09650 10.04913 12042 ft 267 kts 327°
2026-04-29 18:31 45.11219 10.03507 11754 ft 266 kts 326°
2026-04-29 18:31 45.12784 10.02102 11447 ft 266 kts 327°
2026-04-29 18:31 45.14323 10.00720 11175 ft 265 kts 327°
2026-04-29 18:32 45.15875 9.99325 10906 ft 264 kts 326°
2026-04-29 18:32 45.18971 9.96542 10354 ft 263 kts 326°
2026-04-29 18:32 45.20506 9.95161 10055 ft 257 kts 327°
2026-04-29 18:33 45.22001 9.93830 9737 ft 251 kts 330°
2026-04-29 18:33 45.23649 9.93159 9400 ft 248 kts 358°
2026-04-29 18:33 45.25369 9.93308 9189 ft 248 kts
2026-04-29 18:33 45.27073 9.93482 8980 ft 250 kts
2026-04-29 18:34 45.28810 9.93677 8691 ft 250 kts
2026-04-29 18:34 45.29983 9.93817 8492 ft 250 kts
2026-04-29 18:34 45.32276 9.94098 8094 ft 249 kts
2026-04-29 18:34 45.34002 9.94315 7789 ft 248 kts
2026-04-29 18:35 45.35715 9.94534 7537 ft 246 kts
2026-04-29 18:35 45.37419 9.94753 7296 ft 245 kts
2026-04-29 18:35 45.39104 9.94969 7044 ft 239 kts
2026-04-29 18:35 45.40713 9.95176 6791 ft 233 kts
2026-04-29 18:36 45.42325 9.95383 6572 ft 232 kts
2026-04-29 18:36 45.43932 9.95592 6318 ft 232 kts
2026-04-29 18:36 45.45539 9.95799 6062 ft 232 kts
2026-04-29 18:36 45.47137 9.96006 5813 ft 230 kts
2026-04-29 18:37 45.48729 9.96212 5561 ft 230 kts
2026-04-29 18:37 45.50309 9.96502 5312 ft 229 kts 14°
2026-04-29 18:37 45.51840 9.97099 5104 ft 225 kts 17°
2026-04-29 18:37 45.53310 9.97678 4869 ft 212 kts 16°
2026-04-29 18:38 45.54701 9.98215 4633 ft 204 kts 16°
2026-04-29 18:38 45.56049 9.98727 4422 ft 203 kts 17°
2026-04-29 18:38 45.57411 9.99236 4222 ft 202 kts 17°
2026-04-29 18:38 45.58775 9.99737 4043 ft 202 kts 14°
2026-04-29 18:39 45.60164 9.99635 3785 ft 204 kts 340°
2026-04-29 18:39 45.61278 9.98431 3559 ft 202 kts 306°
2026-04-29 18:39 45.61834 9.96652 3481 ft 194 kts 285°
2026-04-29 18:39 45.62211 9.94818 3420 ft 191 kts 285°
2026-04-29 18:40 45.62575 9.92991 3285 ft 191 kts 285°
2026-04-29 18:40 45.62932 9.91170 3088 ft 190 kts 284°
2026-04-29 18:40 45.63279 9.89376 2861 ft 189 kts 284°
2026-04-29 18:40 45.63622 9.87605 2689 ft 181 kts 284°
2026-04-29 18:41 45.64563 9.82606 2109 ft 159 kts 283°
2026-04-29 18:41 45.64845 9.81092 1930 ft 156 kts 284°
2026-04-29 18:42 45.65123 9.79601 1728 ft 155 kts 284°
2026-04-29 18:42 45.65407 9.78130 1583 ft 152 kts 285°
2026-04-29 18:42 45.65671 9.76646 1364 ft 156 kts 284°
2026-04-29 18:42 45.65951 9.75169 1157 ft 154 kts 285°
2026-04-29 18:43 45.66234 9.73721 980 ft 152 kts 284°
2026-04-29 18:43 45.66490 9.72293 797 ft 144 kts 284°
2026-04-29 18:43 45.66717 9.71058 784 ft 108 kts 285°
2026-04-29 18:43 45.66875 9.70212 795 ft 63 kts 284°
2026-04-29 18:44 45.66951 9.69800 795 ft 37 kts 285°
2026-04-29 18:44 45.67021 9.69427 796 ft 38 kts 284°
2026-04-29 18:44 45.67068 9.69155 798 ft 12 kts 275°
2026-04-29 18:44 45.67038 9.69020 799 ft 15 kts 225°
2026-04-29 18:45 45.66967 9.68985 800 ft 3 kts 188°
2026-04-29 18:45 45.66966 9.68985 800 ft 0 kts 188°
2026-04-29 18:45 45.66963 9.68985 800 ft 1 kts 188°
2026-04-29 18:45 45.66927 9.68997 799 ft 11 kts 142°
2026-04-29 18:46 45.66900 9.69148 798 ft 19 kts 98°
2026-04-29 18:46 45.66867 9.69351 797 ft 23 kts 107°
2026-04-29 18:46 45.66823 9.69577 795 ft 19 kts 104°
2026-04-29 18:46 45.66796 9.69736 794 ft 15 kts 103°
2026-04-29 18:47 45.66734 9.69816 794 ft 7 kts 187°
2026-04-29 18:47 45.66700 9.69804 794 ft 4 kts 196°
2026-04-29 18:47 45.66684 9.69798 794 ft 0 kts 196°
2026-04-29 18:47 45.66680 9.69796 794 ft 2 kts 196°
2026-04-29 18:48 45.66677 9.69795 794 ft 0 kts 196°